Other Surface Observations
Issued by NWS

Home | Current Version | Previous Version | Text Only | Print | Product List | Glossary On
Versions: 1 2 3 4 5 6 7 8 9 10 11 12 13 14 15 16 17 18 19 20 21 22 23 24 25 26 27 28 29 30 31 32 33 34 35 36 37 38 39 40 41 42 43 44 45 46 47 48 49 50
000
SXUS52 KTAE 251019
OSOTAE
OSOTAE
North Florida/South Alabama/Southwest Georgia Weather Roundup
National Weather Service Tallahassee Florida
600 AM EDT MON MAY 25 2015

Note: "fair" indicates few or no clouds below 12,000 feet with no
significant weather and/or obstructions to visibility.

!FLZ017-115-028-034-025-251100
...North Florida...

CITY           SKY/WX    TMP DP  RH WIND       PRES   REMARKS
TALLAHASSEE    MOCLDY    74  69  85 E5        30.17S
APALACHICOLA   CLOUDY    82  72  71 SE15      30.12F
PERRY          CLEAR     72  71  96 E5        30.18S FOG
CROSS CITY       N/A     72  70  93 CALM      30.16S
JACKSONVILLE   PTCLDY    72  71  97 E5        30.19S
$$

!FLZ112-006-005-002-011-251100
...Florida Panhandle...

CITY           SKY/WX    TMP DP  RH WIND       PRES   REMARKS
MARIANNA       CLEAR     73  69  87 E6        30.14F
BONIFAY        FAIR      71  66  84 E3        30.15S
PANAMA CITY NW FAIR      73  69  87 NE5       30.11F
TYNDALL AFB    CLEAR     74  71  91 E6        30.11F
TYND DRONE APT FAIR      74  72  94 E6        30.11
DE FUNIAK SPR  FAIR      69  67  93 MISG      30.14R
EGLIN AFB      CLOUDY    76  73  91 E7        30.11S
DESTIN         CLOUDY    78  74  87 SE9       30.11R
HURLBURT       MOCLDY    79  73  83 SE17G26   30.10R
CRESTVIEW      PTCLDY    72  68  87 E5        30.14S
PENSACOLA      MOCLDY    78  74  87 SE15      30.10R
$$

!ALZ063-066-251100
...South Alabama...

CITY           SKY/WX    TMP DP  RH WIND       PRES   REMARKS
DOTHAN         CLEAR     71  65  81 E6        30.19S
OZARK CAIRNS   NOT AVBL
FT RUCKER HELI CLEAR     72  65  78 CALM      30.14S
RUCKER HELI 3  NOT AVBL
RUCKER HELI 2  FAIR      71  68  90 E7        30.15S
FLORALA APT    PTCLDY    69  66  90 CALM      30.16R
ANDALUSIA      MOCLDY    74  65  73 SE5       30.15R
TROY           CLEAR     70  63  78 CALM      30.18R
EUFALA         FAIR      70  65  84 E6        30.18R
MOBILE         CLOUDY    77  73  87 SE10      30.08S
$$

!GAZ120>161-251100
...Southwest and South Central Georgia...

CITY           SKY/WX    TMP DP  RH WIND       PRES   REMARKS
THOMASVILLE    FAIR      70  70 100 E5        30.20R
BAINBRIDGE     PTCLDY    73  70  88 E7        30.18S
MOODY AFB      PTCLDY    67  66  95 E6        30.19S
VALDOSTA       NOT AVBL
MOULTRIE       PTCLDY    70  68  94 CALM      30.20S
BLAKELY        CLEAR     70  70 100 E3        30.19S
ALBANY         CLEAR     70  67  90 E6        30.22S
TIFTON         CLOUDY    68  67  97 E3        30.21S
FITZGERALD     CLOUDY    70  67  92 CALM      30.25S
CORDELE        FAIR      71  67  90 NE3       30.24S
AMERICUS       CLOUDY    68  66  94 E6        30.24S
HOMERVILLE     CLOUDY    68  68 100 CALM      30.21S FOG
$$

!GMZ750-755-770-775-251100
...Coastal and Buoy Obs...

STATION/POSITION TIME  TEMP    WIND        PRES    VSBY  WAVE
                       AIR SEA DIR/SP/G                  HT/PER
                 (UTC) (F)     (DEG/KT/KT) (MB)    (MI)  (FT/S)
KEATON BEACH     1000   71      80/  9/ 10 1021.4S
CEDAR KEY        1000   76     120/ 11/ 13 1021.8R
C TOWER          1000   79     130/ 18/ 19 1019.8F
APALACHICOLA BUO 0950   80 80  140/ 16/ 19 1019.6R         6/ 6
PANAMA CITY BUOY 0950   80 80  130/ 17/ 19 1018.6F         4/ 6
MOBILE BUOY      0950   77 78  130/ 19/ 23 1018.2R         6/ 6
ORANGE BCH AL BU 0950   80 80  140/ 16/ 19 1017.8R         5/ 7
$$



USA.gov is the U.S. government's official web portal to all federal, state and local government web resources and services.